Stations météo

réclame
Mon MeteoGroup
Westdorpe aws, Pays-Bas (6319): Température de l'air & dewpoint: 15.01.2018 13:00:00 - 21.01.2018 13:00:00 (CET)Westdorpe aws, Pays-Bas (6319): Température de l'air 5cm: 15.01.2018 13:00:00 - 21.01.2018 13:00:00 (CET)Westdorpe aws, Pays-Bas (6319): Vitesse du vent & gusts: 15.01.2018 13:00:00 - 21.01.2018 13:00:00 (CET)Westdorpe aws, Pays-Bas (6319): Direction du vent: 15.01.2018 13:00:00 - 21.01.2018 13:00:00 (CET)Westdorpe aws, Pays-Bas (6319): reduced air pressure: 15.01.2018 13:00:00 - 21.01.2018 13:00:00 (CET)Westdorpe aws, Pays-Bas (6319): visibility: 15.01.2018 13:00:00 - 21.01.2018 13:00:00 (CET)Westdorpe aws, Pays-Bas (6319): Quantités de précipitations: 15.01.2018 13:00:00 - 21.01.2018 13:00:00 (CET)
Date & Time tt [°C] td [°C] tt 5cm [°C] ff [km/h] ff [knt] fx [km/h] fx [knt] dd ppp [hPa] vv [km] rr [mm]
21.01.2018 13:00:00 5,1 3,0 5,7 11 6 18 10 SW 1016,8 19 0,0
21.01.2018 12:00:00 3,6 1,9 3,8 11 6 14 8 SW 1016,9 21 0,0
21.01.2018 11:00:00 2,7 1,7 2,0 7 4 14 8 SSW 1016,8 18 0,0
21.01.2018 10:00:00 1,4 0,7 0,7 7 4 11 6 WSW 1016,1 22 0,0
21.01.2018 09:00:00 0,9 0,1 0,4 11 6 14 8 SW 1015,6 28 0,0
21.01.2018 08:00:00 0,6 -0,4 -0,7 7 4 11 6 SW 1014,8 34 0,0
21.01.2018 07:00:00 1,0 -0,2 -1,4 7 4 11 6 WNW 1013,9 39 0,0
21.01.2018 06:00:00 0,9 -0,1 -1,4 7 4 14 8 WNW 1013,1 50 0,0
21.01.2018 05:00:00 1,9 0,2 0,5 11 6 18 10 WNW 1012,3 47 0,0
21.01.2018 04:00:00 2,0 0,6 0,7 11 6 18 10 WNW 1011,2 36 0,0
21.01.2018 03:00:00 2,9 2,2 2,0 14 8 25 14 W 1010,5 10 0,0
21.01.2018 02:00:00 3,0 2,5 2,8 14 8 29 16 W 1009,3 19 0,3
21.01.2018 01:00:00 2,6 2,2 2,1 11 6 14 8 W 1007,7 13 0,1
21.01.2018 00:00:00 2,8 2,4 2,7 11 6 14 8 WNW 1006,6 4,9 0,2
20.01.2018 23:00:00 2,4 2,4 2,0 4 2 14 8 NW 1005,2 4,7 0,0
20.01.2018 22:00:00 2,5 2,0 2,0 7 4 14 8 N 1003,9 11 0,0
20.01.2018 21:00:00 2,1 1,6 1,0 7 4 11 6 N 1002,8 5 0,0
20.01.2018 20:00:00 2,1 1,8 1,5 4 2 7 4 NNE 1001,6 4,5 0,2
20.01.2018 19:00:00 2,5 1,8 2,4 4 2 4 2 N 1000,9 6 0,4
20.01.2018 18:00:00 2,5 1,7 2,5 4 2 11 6 E 999,7 14 0,2
20.01.2018 17:00:00 2,6 1,6 2,6 11 6 14 8 E 999,0 45 0,0
20.01.2018 16:00:00 2,9 2,0 3,1 7 4 18 10 ESE 999,0 44 0,0
20.01.2018 15:00:00 3,2 2,1 3,5 11 6 14 8 ESE 999,2 37 0,4
20.01.2018 14:00:00 3,3 2,0 3,6 7 4 14 8 ESE 999,9 24 0,9
20.01.2018 13:00:00 3,4 2,6 3,6 7 4 11 6 SSE 1001,1 11 1,3
20.01.2018 12:00:00 3,6 3,2 3,7 4 2 14 8 ESE 1002,5 8 0,9
20.01.2018 11:00:00 3,5 2,9 3,5 7 4 18 10 SSE 1003,4 11 0,2
20.01.2018 10:00:00 3,3 2,5 3,2 11 6 25 14 S 1004,0 12 0,1
20.01.2018 09:00:00 3,1 2,0 2,5 18 10 25 14 S 1004,8 25 0,0
20.01.2018 08:00:00 2,6 1,4 1,9 18 10 25 14 S 1005,3 37 0,0
20.01.2018 07:00:00 2,0 0,7 0,8 11 6 14 8 S 1006,2 27 0,0
20.01.2018 06:00:00 1,4 0,0 0,5 11 6 22 12 S 1006,8 17 0,0
20.01.2018 05:00:00 2,3 0,2 1,4 14 8 29 16 SSW 1007,6 29 0,0
20.01.2018 04:00:00 2,0 0,2 1,1 14 8 25 14 SW 1008,4 25 0,0
20.01.2018 03:00:00 1,9 0,2 0,9 14 8 29 16 SW 1009,0 26 0,0
20.01.2018 02:00:00 2,3 0,2 1,6 18 10 29 16 SW 1009,2 29 0,0
20.01.2018 01:00:00 2,6 0,1 1,8 22 12 29 16 SW 1009,4 30 0,0
20.01.2018 00:00:00 2,6 0,3 1,7 14 8 25 14 SW 1009,4 28 0,0
19.01.2018 23:00:00 3,7 0,4 3,0 22 12 29 16 SW 1009,5 32 0,0
19.01.2018 22:00:00 3,5 0,2 2,8 22 12 32 18 SW 1009,1 33 0,0
19.01.2018 21:00:00 3,6 0,5 3,0 22 12 32 18 SW 1009,3 37 0,0
19.01.2018 20:00:00 3,7 0,3 2,8 22 12 29 16 SW 1009,1 46 0,0
19.01.2018 19:00:00 3,7 0,3 2,7 22 12 29 16 SW 1009,4 42 0,0
19.01.2018 18:00:00 4,2 0,7 2,8 18 10 29 16 WSW 1009,2 40 0,0
19.01.2018 17:00:00 4,2 0,8 3,3 14 8 25 14 SW 1009,1 48 0,0
19.01.2018 16:00:00 5,5 0,8 5,4 22 12 36 19 WSW 1009,0 42 0,0
19.01.2018 15:00:00 5,7 1,6 5,4 22 12 40 21 WSW 1009,0 37 0,0
19.01.2018 14:00:00 5,6 2,0 5,5 25 14 32 18 WSW 1009,3 35 0,0
19.01.2018 13:00:00 5,6 2,7 6,4 22 12 29 16 SW 1009,5 29 0,0
19.01.2018 12:00:00 4,6 2,2 5,2 18 10 29 16 SW 1009,7 27 0,0
19.01.2018 11:00:00 3,7 1,8 3,9 22 12 29 16 SW 1009,3 25 0,0
19.01.2018 10:00:00 3,0 1,3 2,8 18 10 25 14 SW 1009,2 17 0,0
19.01.2018 09:00:00 2,2 0,8 1,6 14 8 22 12 SSW 1008,5 30 0,0
19.01.2018 08:00:00 3,0 1,5 2,6 18 10 29 16 SW 1008,1 40 0,0
19.01.2018 07:00:00 3,1 1,7 2,4 11 6 18 10 SW 1007,6 39 0,0
19.01.2018 06:00:00 3,4 1,7 2,7 11 6 18 10 SW 1007,2 33 0,0
19.01.2018 05:00:00 3,3 1,5 2,7 18 10 29 16 WSW 1006,3 41 0,0
19.01.2018 04:00:00 3,2 2,2 2,9 11 6 40 21 WSW 1006,2 45 0,2
19.01.2018 03:00:00 3,5 2,0 3,2 18 10 32 18 WSW 1005,6 49 0,0
19.01.2018 02:00:00 3,8 1,8 3,1 18 10 32 18 W 1004,6 50 0,0
19.01.2018 01:00:00 4,1 2,6 3,4 22 12 36 19 WSW 1004,5 15 0,2
19.01.2018 00:00:00 3,5 2,5 2,9 14 8 32 18 WSW 1004,0 48 0,1
18.01.2018 23:00:00 3,9 2,7 3,3 18 10 22 12 SW 1003,3 50 0,1
18.01.2018 22:00:00 3,5 2,7 3,1 14 8 22 12 SW 1003,1 25 0,1
18.01.2018 21:00:00 3,4 2,4 3,1 14 8 32 18 W 1003,0 24 4,3
18.01.2018 20:00:00 5,2 3,3 5,0 18 10 36 19 SW 1002,1 13 0,3
18.01.2018 19:00:00 6,1 2,8 4,5 11 6 14 8 SSW 1002,1 45 0,0
18.01.2018 18:00:00 5,5 2,6 4,4 11 6 18 10 WSW 1002,2 50 0,0
18.01.2018 17:00:00 6,6 2,4 6,2 18 10 40 21 W 1002,5 50 0,0
18.01.2018 16:00:00 7,0 1,9 6,7 29 16 43 23 W 1002,3 49 0,0
18.01.2018 15:00:00 8,0 2,6 8,3 32 18 50 27 W 1001,8 41 0,0
18.01.2018 14:00:00 7,5 2,6 7,8 40 21 58 31 W 1001,7 41 0,0
18.01.2018 13:00:00 7,0 2,6 7,1 36 19 58 31 W 1001,4 35 0,0
18.01.2018 12:00:00 6,9 1,9 6,9 43 23 72 39 W 1000,7 37 0,0
18.01.2018 11:00:00 7,4 2,2 7,4 58 31 97 53 W 998,7 25 0,0
18.01.2018 10:00:00 8,2 1,3 7,7 72 39 122 66 W 995,5 39 0,0
18.01.2018 09:00:00 9,7 3,8 9,2 65 35 97 53 WSW 991,9 14 0,0
18.01.2018 08:00:00 10,8 6,4 10,3 58 31 86 47 WSW 990,7 18 0,0
18.01.2018 07:00:00 10,4 7,4 9,6 50 27 68 37 WSW 990,6 25 0,0
18.01.2018 06:00:00 7,9 6,8 7,4 36 19 68 37 SW 991,6 7 0,1
18.01.2018 05:00:00 6,7 5,5 6,1 47 25 68 37 SSW 993,4 5 0,4
18.01.2018 04:00:00 5,2 4,1 4,9 40 21 65 35 S 996,2 4,7 1,1
18.01.2018 03:00:00 5,1 3,6 4,8 36 19 50 27 S 999,5 9 2,0
18.01.2018 02:00:00 4,9 2,9 4,6 29 16 47 25 SSW 1002,6 17 0,5
18.01.2018 01:00:00 5,5 1,9 4,9 22 12 29 16 SSW 1004,8 18 0,0
18.01.2018 00:00:00 5,0 1,1 4,5 22 12 32 18 SW 1006,6 24 0,0
17.01.2018 23:00:00 4,7 0,8 3,9 22 12 36 19 SW 1007,3 24 0,0
17.01.2018 22:00:00 4,8 0,5 4,2 25 14 36 19 SW 1007,9 24 0,0
17.01.2018 21:00:00 5,3 0,6 4,6 18 10 32 18 SW 1008,1 24 0,0
17.01.2018 20:00:00 5,3 0,7 4,9 25 14 36 19 SW 1008,3 21 0,0
17.01.2018 19:00:00 5,7 0,5 4,9 22 12 36 19 WSW 1008,4 25 0,0
17.01.2018 18:00:00 6,0 0,3 5,5 25 14 43 23 WSW 1008,3 24 0,0
17.01.2018 17:00:00 5,7 0,8 5,4 25 14 54 29 WSW 1007,9 35 0,0
17.01.2018 16:00:00 5,9 0,2 5,5 36 19 61 33 W 1007,1 33 0,0
17.01.2018 15:00:00 6,1 0,7 5,8 36 19 61 33 W 1006,2 25 0,0
17.01.2018 14:00:00 5,8 0,8 5,7 40 21 61 33 W 1005,6 26 0,0
17.01.2018 13:00:00 5,5 1,1 5,3 40 21 58 31 W 1004,9 23 0,0
17.01.2018 12:00:00 5,5 0,7 4,9 32 18 54 29 W 1004,1 26 0,0
17.01.2018 11:00:00 4,9 0,3 4,5 36 19 54 29 W 1003,3 26 0,0
17.01.2018 10:00:00 4,6 -0,1 4,2 36 19 50 27 W 1001,9 34 0,2
17.01.2018 09:00:00 4,2 -0,5 3,8 32 18 50 27 W 1000,7 29 0,0
17.01.2018 08:00:00 3,9 -1,0 3,3 36 19 58 31 W 999,4 39 0,0
17.01.2018 07:00:00 3,6 -1,3 2,8 36 19 50 27 W 998,5 46 0,0
17.01.2018 06:00:00 3,5 -1,3 2,7 32 18 47 25 W 997,3 45 0,5
17.01.2018 05:00:00 3,0 -0,9 2,2 29 16 47 25 W 996,3 20 0,5
17.01.2018 04:00:00 2,7 0,2 2,0 29 16 58 31 W 995,6 10 0,8
17.01.2018 03:00:00 4,1 0,2 3,5 29 16 43 23 W 994,4 20 0,1
17.01.2018 02:00:00 4,1 0,1 3,4 25 14 43 23 WSW 994,2 40 0,0
17.01.2018 01:00:00 4,5 0,7 4,1 29 16 43 23 W 994,1 39 0,0
17.01.2018 00:00:00 4,9 1,8 4,4 25 14 36 19 WSW 993,5 32 0,0
16.01.2018 23:00:00 4,7 1,7 4,1 22 12 32 18 SW 993,2 33 0,0
16.01.2018 22:00:00 4,8 1,2 4,2 22 12 32 18 SW 993,7 28 0,0
16.01.2018 21:00:00 4,8 0,5 4,2 22 12 40 21 SW 994,0 33 0,0
16.01.2018 20:00:00 4,8 0,8 3,8 18 10 29 16 SW 994,5 37 0,0
16.01.2018 19:00:00 5,2 1,2 4,6 25 14 32 18 SW 994,8 38 0,0
16.01.2018 18:00:00 4,9 0,6 3,7 11 6 32 18 WSW 995,5 42 0,0
16.01.2018 17:00:00 5,8 0,9 5,3 25 14 47 25 W 995,7 42 0,0
16.01.2018 16:00:00 6,1 2,2 5,7 22 12 47 25 W 995,4 31 0,5
16.01.2018 15:00:00 6,4 0,9 6,0 25 14 47 25 WSW 995,4 39 0,0
16.01.2018 14:00:00 7,0 1,2 6,6 36 19 58 31 W 995,4 41 0,0
16.01.2018 13:00:00 6,8 2,0 6,1 32 18 58 31 W 995,5 35 0,1
16.01.2018 12:00:00 6,9 2,4 6,6 32 18 58 31 W 995,6 43 0,0
16.01.2018 11:00:00 6,7 2,0 6,4 32 18 50 27 W 995,0 28 0,0
16.01.2018 10:00:00 6,5 2,4 6,2 29 16 50 27 W 994,2 44 0,0
16.01.2018 09:00:00 6,8 3,3 6,4 32 18 50 27 W 993,2 34 0,0
16.01.2018 08:00:00 6,7 3,6 6,1 29 16 43 23 WSW 992,4 39 0,0
16.01.2018 07:00:00 6,7 4,1 5,8 25 14 36 19 SW 992,0 33 0,0
16.01.2018 06:00:00 6,5 4,1 5,9 22 12 36 19 SW 992,3 32 0,0
16.01.2018 05:00:00 6,7 3,9 6,2 29 16 43 23 WSW 992,6 42 0,0
16.01.2018 04:00:00 5,9 3,5 4,9 22 12 36 19 SW 992,9 35 0,0
16.01.2018 03:00:00 6,1 3,7 5,5 25 14 32 18 SW 993,5 26 0,0
16.01.2018 02:00:00 6,3 3,9 5,6 25 14 40 21 SW 993,8 27 0,0
16.01.2018 01:00:00 6,7 4,3 6,2 25 14 43 23 SW 994,9 43 0,0
16.01.2018 00:00:00 6,6 4,5 5,6 25 14 36 19 WSW 994,9 46 0,0
15.01.2018 23:00:00 6,5 5,1 6,0 22 12 32 18 SW 994,6 28 0,0
15.01.2018 22:00:00 7,0 4,9 6,5 22 12 50 27 WSW 993,9 42 1,0
15.01.2018 21:00:00 8,1 5,6 7,8 43 23 58 31 W 993,4 15 0,1
15.01.2018 20:00:00 8,6 7,6 8,1 25 14 43 23 SW 992,2 26 1,2
15.01.2018 19:00:00 8,2 6,9 7,6 32 18 54 29 SSW 991,7 28 1,2
15.01.2018 18:00:00 7,2 6,2 6,8 36 19 58 31 S 992,0 7 2,1
15.01.2018 17:00:00 6,8 5,2 6,5 40 21 65 35 S 993,1 11 1,4
15.01.2018 16:00:00 6,6 4,9 6,3 40 21 65 35 S 994,8 8 2,2
15.01.2018 15:00:00 6,6 4,8 6,3 40 21 61 33 S 996,8 16 0,4
15.01.2018 14:00:00 6,3 4,9 6,1 36 19 61 33 S 998,9 7 0,5
15.01.2018 13:00:00 6,2 4,6 6,0 40 21 58 31 S 1001,4 4,9 0,3

tt = Température de l'air
td = dewpoint
tt 5cm = Température de l'air 5cm
ff = Vitesse du vent
fx = gusts
dd = Direction du vent
ppp = reduced air pressure
vv = visibility
rr = Quantités de précipitations

stations d'obs. à proximité